Weather History for KMHV - July, 2013

Change the Weather History Date:

Friday, July 26, 2013

  Actual Average Record
Temperature  
Mean Temperature 84 °F -  
Max Temperature 89 °F 98 °F 107 °F (1975)
Min Temperature 80 °F 69 °F 54 °F (1965)
Cooling Degree Days 20    
Growing Degree Days 34 (Base 50)    
Moisture  
Dew Point 53 °F    
Average Humidity 35    
Maximum Humidity 45    
Minimum Humidity 23    
Precipitation  
Precipitation 0.00 in - - ()
Sea Level Pressure  
Sea Level Pressure 30.07 in    
Wind  
Wind Speed 15 mph (WNW)    
Max Wind Speed 26 mph    
Max Gust Speed 37 mph    
Visibility 10 miles    
Events      
Averages and records for this station are not official NWS values.
T = Trace of Precipitation, MM = Missing Value Source: NWS Daily Summary

Daily Weather History Graph

Daily Weather History Graph

Search for Another Location

Airport or City:

Trip Planner

Search our weather history database for the weather conditions in past years. The results will help you decide how hot, cold, wet, or windy it might be!

Date:

Astronomy

Jul. 26, 2013 Rise Set
Actual Time 5:57 AM PDT 8:00 PM PDT
Civil Twilight 5:29 AM PDT 8:28 PM PDT
Nautical Twilight 4:55 AM PDT 9:02 PM PDT
Astronomical Twilight 4:18 AM PDT 9:39 PM PDT
Moon 10:31 PM PDT (7/26) 10:25 AM PDT (7/26)
Length of Visible Light 14h 58m
Length of Day
14h 02m
Waning Gibbous, 79% of the Moon is Illuminated
Jul 26
Waning Gibbous
Jul 29
Last Quarter
Aug 6
New
Aug 14
First Quarter
Aug 20
Full

Hourly Weather History & Observations

Time (PDT) Temp. Heat Index Dew Point Humidity Pressure Visibility Wind Dir Wind Speed Gust Speed Precip Events Conditions
12:15 AM 86.0 °F - 44.6 °F 23% 30.04 in 10.0 mi WNW 21.9 mph 28.8 mph N/A   Clear
12:35 AM 86.0 °F - 44.6 °F 23% 30.05 in 10.0 mi West 23.0 mph 28.8 mph N/A   Clear
12:55 AM 84.2 °F - 51.8 °F 33% 30.04 in 9.0 mi West 26.5 mph 34.5 mph N/A   Scattered Clouds
1:15 AM 84.2 °F - 46.4 °F 27% 30.04 in 10.0 mi West 15.0 mph 31.1 mph N/A   Clear
1:35 AM 84.2 °F - 46.4 °F 27% 30.04 in 10.0 mi West 25.3 mph 36.8 mph N/A   Partly Cloudy
1:55 AM 84.2 °F - 48.2 °F 29% 30.04 in 10.0 mi West 24.2 mph 29.9 mph N/A   Partly Cloudy
2:15 AM 84.2 °F - 48.2 °F 29% 30.05 in 10.0 mi West 21.9 mph 26.5 mph N/A   Clear
2:35 AM 84.2 °F - 48.2 °F 29% 30.06 in 10.0 mi WNW 19.6 mph 28.8 mph N/A   Partly Cloudy
2:55 AM 82.4 °F - 50.0 °F 32% 30.06 in 10.0 mi WNW 21.9 mph 25.3 mph N/A   Clear
3:15 AM 82.4 °F - 50.0 °F 32% 30.06 in 10.0 mi NW 16.1 mph - N/A   Clear
3:35 AM 80.6 °F - 51.8 °F 37% 30.06 in 10.0 mi WNW 12.7 mph - N/A   Clear
3:55 AM 82.4 °F - 50.0 °F 32% 30.05 in 10.0 mi NW 8.1 mph - N/A   Clear
4:15 AM 82.4 °F - 51.8 °F 35% 30.04 in 10.0 mi West 19.6 mph 25.3 mph N/A   Clear
4:35 AM 82.4 °F 81.4 °F 53.6 °F 37% 30.04 in 10.0 mi West 18.4 mph 24.2 mph N/A   Clear
4:55 AM 82.4 °F 81.4 °F 53.6 °F 37% 30.04 in 10.0 mi West 24.2 mph 29.9 mph N/A   Clear
5:15 AM 82.4 °F 81.4 °F 53.6 °F 37% 30.05 in 10.0 mi West 21.9 mph 28.8 mph N/A   Clear
5:35 AM 82.4 °F 81.4 °F 53.6 °F 37% 30.05 in 10.0 mi West 23.0 mph - N/A   Clear
5:55 AM 80.6 °F - 51.8 °F 37% 30.05 in 10.0 mi West 20.7 mph 29.9 mph N/A   Clear
6:15 AM 82.4 °F - 51.8 °F 35% 30.06 in 10.0 mi NW 15.0 mph 19.6 mph N/A   Clear
6:35 AM 82.4 °F - 51.8 °F 35% 30.07 in 10.0 mi WNW 12.7 mph 16.1 mph N/A   Clear
6:55 AM 82.4 °F - 51.8 °F 35% 30.08 in 10.0 mi NW 11.5 mph - N/A   Partly Cloudy
7:15 AM 82.4 °F - 50.0 °F 32% 30.09 in 10.0 mi East 6.9 mph - N/A   Scattered Clouds
7:35 AM 82.4 °F - 50.0 °F 32% 30.10 in 10.0 mi Calm Calm - N/A   Scattered Clouds
7:55 AM 84.2 °F - 50.0 °F 30% 30.10 in 10.0 mi Calm Calm - N/A   Clear
8:15 AM 84.2 °F - 50.0 °F 30% 30.11 in 10.0 mi SSE 4.6 mph - N/A   Clear
8:35 AM 84.2 °F - 51.8 °F 33% 30.11 in 10.0 mi SE 3.5 mph - N/A   Clear
8:55 AM 84.2 °F - 51.8 °F 33% 30.12 in 10.0 mi SE 3.5 mph - N/A   Scattered Clouds
9:15 AM 86.0 °F - 51.8 °F 31% 30.11 in 10.0 mi West 10.4 mph - N/A   Scattered Clouds
9:35 AM 86.0 °F - 51.8 °F 31% 30.11 in 10.0 mi NNW 10.4 mph - N/A   Scattered Clouds
9:55 AM 89.6 °F 87.3 °F 53.6 °F 29% 30.11 in 10.0 mi West 8.1 mph - N/A   Partly Cloudy
10:15 AM 89.6 °F - 51.8 °F 27% 30.12 in 10.0 mi NW 6.9 mph - N/A   Clear
10:35 AM 87.8 °F - 51.8 °F 29% 30.12 in 10.0 mi Calm Calm - N/A   Clear
10:55 AM 89.6 °F - 51.8 °F 27% 30.13 in 10.0 mi ESE 6.9 mph - N/A   Partly Cloudy
11:05 AM 87.8 °F - 51.8 °F 29% 30.13 in 10.0 mi Calm Calm - N/A   Partly Cloudy
5:55 PM 86.0 °F 84.9 °F 57.2 °F 37% 30.08 in 10.0 mi NW 8.1 mph - N/A   Overcast
6:15 PM 84.2 °F 83.5 °F 57.2 °F 40% 30.08 in 10.0 mi NW 8.1 mph - N/A   Overcast
6:35 PM 84.2 °F 83.5 °F 57.2 °F 40% 30.08 in 10.0 mi NNW 4.6 mph - N/A   Overcast
6:55 PM 86.0 °F 84.5 °F 55.4 °F 35% 30.08 in 10.0 mi North 8.1 mph - N/A   Overcast
7:15 PM 86.0 °F 84.5 °F 55.4 °F 35% 30.07 in 10.0 mi NNE 6.9 mph - N/A   Mostly Cloudy
7:35 PM 86.0 °F 84.9 °F 57.2 °F 37% 30.07 in 10.0 mi North 6.9 mph - N/A   Mostly Cloudy
7:55 PM 84.2 °F 83.8 °F 59.0 °F 42% 30.07 in 10.0 mi WNW 5.8 mph - N/A   Clear
8:15 PM 82.4 °F 82.0 °F 57.2 °F 42% 30.07 in 10.0 mi WNW 4.6 mph - N/A   Clear
8:35 PM 82.4 °F 82.0 °F 57.2 °F 42% 30.06 in 10.0 mi WNW 5.8 mph - N/A   Clear
8:55 PM 82.4 °F 82.0 °F 57.2 °F 42% 30.07 in 10.0 mi West 6.9 mph - N/A   Clear
9:15 PM 82.4 °F 82.0 °F 57.2 °F 42% 30.07 in 10.0 mi West 10.4 mph - N/A   Clear
9:35 PM 82.4 °F 82.5 °F 59.0 °F 45% 30.07 in 10.0 mi West 6.9 mph - N/A   Clear
9:55 PM 80.6 °F 80.8 °F 57.2 °F 45% 30.08 in 10.0 mi WNW 9.2 mph - N/A   Clear
10:15 PM 80.6 °F 80.8 °F 57.2 °F 45% 30.08 in 10.0 mi WNW 11.5 mph - N/A   Clear
10:35 PM 82.4 °F 81.7 °F 55.4 °F 39% 30.08 in 10.0 mi West 12.7 mph - N/A   Clear
10:55 PM 80.6 °F 80.5 °F 55.4 °F 42% 30.08 in 10.0 mi West 12.7 mph - N/A   Clear
11:15 PM 82.4 °F 81.7 °F 55.4 °F 39% 30.08 in 10.0 mi West 11.5 mph - N/A   Clear
11:35 PM 82.4 °F 81.7 °F 55.4 °F 39% 30.07 in 10.0 mi West 10.4 mph - N/A   Clear
11:55 PM 80.6 °F 80.5 °F 55.4 °F 42% 30.07 in 10.0 mi West 9.2 mph - N/A   Clear